Tracking 21992 objects as of 27-Nov-2020
HD Live streaming from Space Station
objects crossing your sky now

COSMOS 482 DESCENT CRAFT

Track COSMOS 482 DESCENT CRAFT now!
10-day predictions
COSMOS 482 DESCENT CRAFT is classified as:


NORAD ID: 6073
Int'l Code: 1972-023E
Perigee: 207.0 km
Apogee: 2,210.8 km
Inclination: 52.0 °
Period: 109.5 minutes
Semi major axis: 7579 km
RCS: 0.7153 m2 (medium)
Launch date: March 31, 1972
Source: Commonwealth of Independent States (former USSR) (CIS)
Launch site: TYURATAM MISSILE AND SPACE COMPLEX (TTMTR)
aabbcc
Your satellite tracking list
Your tracking list is empty




NASA's NSSDC Master Catalog

Two Line Element Set (TLE):
1  6073U 72023E   20332.14493676  .00028109  65169-5  11305-3 0  9995
2  6073  52.0440 218.5449 1321783  97.0551 278.2102 13.15540128523549
Source of the keplerian elements: AFSPC